Terminal Aerodrome Forecast
Issued by NWS Wilmington, NC

Home | Current Version | Previous Version | Text Only | Print | Product List | Glossary On
Versions: 1 2 3 4 5 6 7 8 9 10 11 12 13 14 15 16 17 18 19 20
000
FTUS42 KILM 251700
TAFFLO
TAF
KFLO 251722Z 2518/2618 11006KT P6SM OVC015
     FM251830 10005KT P6SM VCSH BKN025
      TEMPO 2520/2524 SCT025 BKN100
     FM260000 00000KT P6SM SCT020 SCT040
     FM260700 00000KT 3SM BR SCT003 SCT060
      TEMPO 2609/2612 1SM BR VV003
     FM261400 23004KT 6SM BR SCT020 SCT090=

USA.gov is the U.S. government's official web portal to all federal, state and local government web resources and services.